Regional Weather Roundup
Issued by NWS State College, PA

Home | Current Version | Previous Version | Text Only | Print | Product List | Glossary Off
Versions: 1 2 3 4 5 6 7 8 9 10 11 12 13 14 15 16 17 18 19 20 21 22 23 24 25 26 27 28 29 30 31 32 33 34 35 36 37 38 39 40 41 42 43 44 45 46 47 48 49 50

000
ASUS41 KCTP 300903
RWRCTP

REGIONAL WEATHER ROUNDUP
NATIONAL WEATHER SERVICE STATE COLLEGE PA
400 AM EST FRI JAN 30 2015

Note: "fair" indicates few or no clouds below 12,000 feet with no
significant weather and/or obstructions to visibility.

* = STATION THAT DOES NOT REPORT PRECIPITATION /E.G. RAIN...SNOW...ETC/
    THUNDER OR FOG.

PAZ002>004-007>009-013>016-020>023-029>032-301000-
WESTERN PENNSYLVANIA

CITY           SKY/WX    TMP DP  RH WIND       PRES   REMARKS
ERIE           LGT SNOW  27  23  85 NW16G28   30.00R FOG     WCI  15
MEADVILLE      SNOW      25  21  85 NW14G28   29.97R VSB 1/2 WCI  13
FRANKLIN*      CLOUDY    27  21  80 NW10G22   29.96R
NEW CASTLE     LGT SNOW  27  25  92 NW9       30.02R FOG
BEAVER COUNTY  NOT AVBL
BUTLER*        CLOUDY    28  27  93 W9G16     29.99R
PITTSBURGH INT LGT SNOW  30  28  92 W13       29.99S
PITTSBURGH     LGT SNOW  30  25  81 W9        29.97S
INDIANA*       CLOUDY    28  28 100 W9G16     29.97S FOG
LATROBE        FLURRIES  28  28 100 W7        29.99S
WASHINGTON CO* CLOUDY    30  27  86 W7        30.02S
$$

PAZ004>006-010>012-017>019-024>028-033>037-041-042-045-046-049>053-301000-
CENTRAL PENNSYLVANIA

CITY           SKY/WX    TMP DP  RH WIND       PRES   REMARKS
BRADFORD       LGT SNOW  26  21  81 NW16G26   29.85R WCI  14
DUBOIS         CLOUDY    27  25  92 W16       29.88R FOG     WCI  15
CLEARFIELD     LGT SNOW  28  24  85 W9        29.89R FOG
JOHNSTOWN      LGT SNOW  25  23  92 W12       29.87S VSB 3/4 WCI  14
ALTOONA        LGT SNOW  28  24  85 NW10      29.90S FOG
STATE COLLEGE  LGT SNOW  29  26  86 W7        29.88S
WILLIAMSPORT   LGT SNOW  27  23  85 W5        29.89S FOG
SELINSGROVE    LGT SNOW  28  25  88 SE3       29.89F FOG
FT INDIANTOWN  CLOUDY    32  26  77 W10G23    29.87S
CAPITAL CITY   CLOUDY    29  25  85 W8        29.89F
HARRISBURG     CLOUDY    28  25  88 NW10      29.89F
YORK           CLOUDY    30  24  78 CALM      29.89S
$$

PAZ038>040-043-044-047-048-054-055-060>062-067>071-301000-
EASTERN PENNSYLVANIA

CITY           SKY/WX    TMP DP  RH WIND       PRES   REMARKS
SCRANTON       LGT SNOW  27  23  85 SW5       29.82F FOG
MOUNT POCONO   LGT SNOW  24  21  88 W7        29.76F FOG
ALLENTOWN      CLOUDY    28  24  85 CALM      29.87F
QUAKERTOWN*    CLOUDY    28  27  93 CALM      29.87F
READING        CLOUDY    29  25  85 CALM      29.88S
LANCASTER      CLOUDY    29  25  85 W5        29.88S
COATESVILLE    MIX PCPN  32  27  80 W6        29.86F
POTTSTOWN      CLOUDY    29  25  85 CALM      29.88F
BLUE BELL      CLOUDY    32  27  80 CALM      29.86F
DOYLESTOWN     CLOUDY    28  26  92 NW3       29.85F
WILLOW GROVE   NOT AVBL
NORTH PHILA    CLOUDY    33  24  69 CALM      29.89F
PHILADELPHIA   CLOUDY    34  25  69 W6        29.88F
$$


USA.gov is the U.S. government's official web portal to all federal, state and local government web resources and services.